This is the latest recevied weather packets stored in our database for station/object KJ7IVE-13. If no packets are shown the sender has not sent any weather packets the latest 10 day(s).
| Time | Temp. | Humidity | Pressure | Rain* | Wind** | Luminosity | Snow |
|---|---|---|---|---|---|---|---|
| 1777799436 | 10.56° C | 10% | 1017.6 hPa | 0 mm | - | 0 W/m² | - |
| 1777799131 | 10° C | 10% | 1017.7 hPa | 0 mm | - | 0 W/m² | - |
| 1777798827 | 10.56° C | 10% | 1017.6 hPa | 0 mm | - | 0 W/m² | - |
| 1777798523 | 10.56° C | 10% | 1017.6 hPa | 0 mm | - | 0 W/m² | - |
| 1777798221 | 10.56° C | 10% | 1017.5 hPa | 0 mm | - | 0 W/m² | - |
| 1777797615 | 10.56° C | 10% | 1017.6 hPa | 0 mm | - | 0 W/m² | - |
| 1777797313 | 10.56° C | 10% | 1017.5 hPa | 0 mm | - | 0 W/m² | - |
| 1777797009 | 10.56° C | 10% | 1017.6 hPa | 0 mm | - | 0 W/m² | - |
| 1777796706 | 11.11° C | 10% | 1017.6 hPa | 0 mm | - | 0 W/m² | - |
| 1777796403 | 11.11° C | 10% | 1017.6 hPa | 0 mm | - | 0 W/m² | - |
| 1777796097 | 10.56° C | 10% | 1017.6 hPa | 0 mm | - | 0 W/m² | - |
| 1777795794 | 11.11° C | 10% | 1017.8 hPa | 0 mm | - | 0 W/m² | - |
| 1777795491 | 11.11° C | 10% | 1017.8 hPa | 0 mm | - | 0 W/m² | - |
| 1777795188 | 11.11° C | 10% | 1017.6 hPa | 0 mm | - | 0 W/m² | - |
| 1777794884 | 11.67° C | 10% | 1017.6 hPa | 0 mm | - | 0 W/m² | - |
| 1777794276 | 11.67° C | 10% | 1017.8 hPa | 0 mm | - | 0 W/m² | - |
| 1777793972 | 11.67° C | 10% | 1017.7 hPa | 0 mm | - | 0 W/m² | - |
| 1777793669 | 11.11° C | 10% | 1017.8 hPa | 0 mm | - | 0 W/m² | - |
| 1777793367 | 12.78° C | 10% | 1017.6 hPa | 0 mm | - | 0 W/m² | - |
| 1777793065 | 12.78° C | 10% | 1017.5 hPa | 0 mm | - | 0 W/m² | - |
| 1777792762 | 12.78° C | 10% | 1017.7 hPa | 0 mm | - | 0 W/m² | - |
| 1777792459 | 12.22° C | 10% | 1017.6 hPa | 0 mm | - | 0 W/m² | - |
| 1777792155 | 12.78° C | 10% | 1017.6 hPa | 0 mm | - | 0 W/m² | - |
| 1777791852 | 13.33° C | 10% | 1017.7 hPa | 0 mm | - | 0 W/m² | - |
| 1777791550 | 12.78° C | 10% | 1017.4 hPa | 0 mm | - | 0 W/m² | - |
* Rain latest hour (hover to see other rain measurements)
** Current wind speed in m/s (hover to see current wind gust speed)